星链-35192(STARLINK-35192)

导读 | 豆包AI

STARLINK-35192是美国SpaceX星链星座的卫星,于2025年10月8日发射入轨,归属星链互联网星座组网建设序列。星链项目旨在依托近地轨道卫星群,为全球提供高速低延迟互联网宽带服务,该卫星承担着补网增强星座覆盖与通信容量的作用,延续了星链持续拓展全球太空互联网覆盖的推进节奏。

基本信息
目录编号:
65933
目录名称:
STARLINK-35192
国际标识:
2025-225Z
轨道中心:
EARTH
卫星名称:
星链-35192
卫星全名:
星链-35192(STARLINK-35192)
卫星状态:
在轨 (已飞行157 天)
发射日期:
2025-10-08 UTC
国别 :
美国 (US)
星等 :
--
轨道信息
数据来源 国际轨道数据 AOE轨道数据
星历时间 2026-03-14T06:23:15+0800
10小时前
查看轨道信息
2026-03-10T06:00:00+0800
4天前
查看轨道信息
半长轴 6853.338km 6853.403km
偏心率 0.000137 0.0001452
轨道倾角 53.159° 53.157°
近地点辐角 94.905° 55.161°
升交点赤经 146.256° 164.917°
平近点角 265.211° 128.880°
近地点 474.262km 474.27km
远地点 476.14km 476.262km
周期 94.105分钟 94.106分钟
每日圈数 15.30205 15.301832
详细信息
固有亮度:
5
最大亮度:
2.5
卫星平台:
Starlink V1.0
覆盖范围:
全球
运营商:
太空探索技术公司
运营商所在国:
美国
制造商(研发单位):
太空探索技术公司
制造商所在国:
美国
使用方式:
暂无
卫星简介
Starlink 计划是 SpaceX 推出的全球卫星互联网项目,通过发射低轨道卫星,为全球尤其是偏远地区提供高速、低延迟的互联网服务。自 2019 年起,Starlink 已部署数千颗卫星,旨在缩小全球数字鸿沟,推动互联网普及。该项目还为军事、航空等行业提供通信支持,带来广泛经济效益。
2D轨道图
3D轨道图
轨道高度分析图
轨道倾角分析图
轨道综合分析图
查看轨道综合分析图